Oak Ridge, TN

9:04 AM EDT on August 23, 2017 (GMT -0400)
Oak Ridge

Weather History for KOQT - April, 2014

Change the Weather History Date:

Sunday, April 6, 2014

  Actual Average (KTYS) Record (KTYS)
Temperature  
Mean Temperature 54 °F -  
Max Temperature 68 °F 65 °F 86 °F (2010)
Min Temperature 42 °F 43 °F 29 °F (1944)
Degree Days  
Heating Degree Days 11    
Growing Degree Days 4 (Base 50)    
Moisture  
Dew Point 36 °F    
Average Humidity 52    
Maximum Humidity 90    
Minimum Humidity 29    
Precipitation  
Precipitation 0.12 in - - ()
Sea Level Pressure  
Sea Level Pressure 30.02 in    
Wind  
Wind Speed 2 mph (ESE)    
Max Wind Speed 12 mph    
Max Gust Speed -    
Visibility 10 miles    
Events Rain    
Averages and records for this station are not official NWS values.
T = Trace of Precipitation, MM = Missing Value Source: NWS Daily Summary

Daily Weather History Graph

Daily Weather History Graph

Search for Another Location

Airport or City:

Trip Planner

Search our weather history database for the weather conditions in past years. The results will help you decide how hot, cold, wet, or windy it might be!

Date:

Astronomy

Apr. 06, 2014 Rise Set
Actual Time 7:16 AM EDT 8:03 PM EDT
Civil Twilight 6:50 AM EDT 8:29 PM EDT
Nautical Twilight 6:19 AM EDT 8:59 PM EDT
Astronomical Twilight 5:47 AM EDT 9:31 PM EDT
Moon 12:22 PM EDT (4/6) 1:52 AM EDT (4/6)
Length of Visible Light 13h 38m
Length of Day
12h 46m
Waxing Crescent, 43% of the Moon is Illuminated
Apr 6
Waxing Crescent
Apr 7
First Quarter
Apr 15
Full
Apr 22
Last Quarter
Apr 29
New

Hourly Weather History & Observations

Time (EDT) Temp. Windchill Dew Point Humidity Pressure Visibility Wind Dir Wind Speed Gust Speed Precip Events Conditions
12:53 AM 46.9 °F - 33.1 °F 59% 30.10 in 10.0 mi Calm Calm - N/A   Clear
1:53 AM 46.9 °F - 32.0 °F 56% 30.08 in 10.0 mi NE 4.6 mph - N/A   Clear
2:53 AM 46.0 °F - 32.0 °F 58% 30.07 in 10.0 mi Calm Calm - N/A   Clear
3:53 AM 46.0 °F 44.8 °F 32.0 °F 58% 30.06 in 10.0 mi NE 3.5 mph - N/A   Clear
4:53 AM 44.1 °F 42.5 °F 33.1 °F 65% 30.06 in 10.0 mi ENE 3.5 mph - N/A   Clear
5:53 AM 43.0 °F - 33.1 °F 68% 30.07 in 10.0 mi Calm Calm - N/A   Clear
6:53 AM 42.1 °F - 33.1 °F 70% 30.07 in 10.0 mi Calm Calm - N/A   Clear
7:53 AM 43.0 °F - 34.0 °F 71% 30.08 in 10.0 mi Calm Calm - N/A   Clear
8:53 AM 46.0 °F 43.9 °F 35.1 °F 66% 30.08 in 10.0 mi NE 4.6 mph - N/A   Clear
9:53 AM 50.0 °F - 33.1 °F 52% 30.09 in 10.0 mi ENE 4.6 mph - N/A   Clear
10:53 AM 53.1 °F - 33.1 °F 47% 30.09 in 10.0 mi ENE 4.6 mph - N/A   Clear
11:53 AM 57.0 °F - 34.0 °F 42% 30.06 in 10.0 mi Calm Calm - N/A   Clear
12:53 PM 61.0 °F - 34.0 °F 36% 30.03 in 10.0 mi Calm Calm - N/A   Clear
1:53 PM 63.0 °F - 35.1 °F 35% 30.01 in 10.0 mi Calm Calm - N/A   Clear
2:53 PM 66.0 °F - 33.1 °F 29% 30.00 in 10.0 mi SSW 4.6 mph - N/A   Clear
3:53 PM 66.9 °F - 34.0 °F 30% 29.97 in 10.0 mi Calm Calm - N/A   Clear
4:53 PM 66.9 °F - 35.1 °F 31% 29.95 in 10.0 mi South 6.9 mph - N/A   Clear
5:53 PM 66.9 °F - 35.1 °F 31% 29.94 in 10.0 mi South 5.8 mph - N/A   Partly Cloudy
6:53 PM 66.0 °F - 36.0 °F 33% 29.92 in 10.0 mi Variable 3.5 mph - N/A   Overcast
7:53 PM 64.0 °F - 37.9 °F 38% 29.93 in 10.0 mi Calm Calm - N/A   Overcast
8:53 PM 63.0 °F - 41.0 °F 45% 29.94 in 10.0 mi Calm Calm - N/A   Overcast
9:53 PM 64.0 °F - 42.1 °F 45% 29.94 in 10.0 mi SSE 11.5 mph - 0.00 in Rain Light Rain
10:53 PM 55.9 °F - 51.1 °F 84% 29.97 in 4.0 mi SSW 4.6 mph - 0.03 in Rain Rain
11:53 PM 54.0 °F - 51.1 °F 90% 29.97 in 4.0 mi West 3.5 mph - 0.09 in Rain Light Rain